Location: Baños de Panticosa
(42.7614°N, 0.2329°W)
Time: 00:29:37
(UTC+00:00)

Daily predictions for brighter satellites

Satellite Brightness Start Highest point End
(mag) Time Altitude Azimuth Time Altitude Azimuth Time Altitude Azimuth
SL-16 R/B 4.4 00:02:19 11° ESE 00:02:51 11° E 00:04:36 10° ENE
Okean 1 Rocket 4.1 00:00:14 10° N 00:04:20 36° ENE 00:04:23 36° ENE
Cosmos 2322 Rocket 4.5 00:01:07 10° W 00:04:53 18° NW 00:08:39 10° N
Lacrosse 5 3.9 00:07:00 16° E 00:07:00 16° E 00:08:49 10° ENE
USA 306 4.3 00:07:11 30° ENE 00:07:11 30° ENE 00:09:27 10° ENE
Cosmos 1980 4.2 00:06:08 43° ESE 00:06:12 43° ESE 00:11:30 10° NE
Cosmos 371 Rocket 3.9 00:06:52 44° E 00:06:52 44° E 00:11:04 10° NNE
Cosmos 2322 4.2 00:07:23 44° WSW 00:08:45 55° WNW 00:14:23 10° NNE
Cosmos 2333 Rocket 3.2 00:07:16 30° W 00:09:15 40° WNW 00:14:35 10° NNE
USA 307 4.3 00:11:14 29° ENE 00:11:14 29° ENE 00:13:27 10° ENE
Cosmos 1844 Rocket 4.1 00:05:34 10° NW 00:09:35 23° W 00:09:35 23° W
Cosmos 220 Rocket 4.4 00:11:12 58° NNW 00:11:12 58° NNW 00:14:47 10° NNE
Cosmos 1461 3.5 00:06:56 10° NW 00:10:09 52° NW 00:10:09 52° NW
ATLAS CENTAUR R/B 3.0 00:10:47 10° NW 00:13:49 30° W 00:13:49 30° W
ASTEX 1 3.3 00:13:04 10° N 00:18:00 83° W 00:18:02 83° W
USA 267 3.2 00:17:02 36° SE 00:20:03 89° NE 00:26:38 10° NW
Cosmos 1674 Rocket 3.7 00:23:08 69° N 00:23:08 69° N 00:26:58 10° N
Cosmos 1386 Rocket 4.4 00:17:03 10° N 00:23:05 79° E 00:24:14 60° SSE
S3M 4.0 00:24:09 59° SSE 00:25:26 80° E 00:31:49 10° N
USA 229 DEB 4.0 00:19:04 10° NW 00:26:30 79° NE 00:30:40 31° SE
USA 229 4.0 00:19:10 10° NW 00:26:36 78° NE 00:30:48 31° SE
Cosmos 2221 Rocket 4.2 00:28:33 49° WNW 00:28:33 49° WNW 00:32:31 10° N
Cosmos 2219 Rocket 3.3 00:26:27 29° W 00:28:19 37° WNW 00:33:29 10° N
Cosmos 1553 Rocket 4.1 00:28:14 52° SW 00:29:25 61° W 00:35:33 10° N
Cosmos 2150 Rocket 3.8 00:32:33 81° S 00:32:47 86° ESE 00:37:58 10° NNE
NOSS 2-2 (E) 4.4 00:29:32 10° NW 00:34:58 88° SW 00:37:14 46° SSE
Cosmos 494 Rocket 3.8 00:31:41 10° NNW 00:36:48 75° WSW 00:36:49 75° WSW
Cosmos 1048 Rocket 3.9 00:32:19 10° NNW 00:37:21 67° W 00:37:21 67° W
Cosmos 1378 Rocket 3.9 00:37:53 60° NW 00:37:53 60° NW 00:41:58 10° N
Meteor 1-16 Rocket 4.2 00:32:35 10° NNW 00:38:32 80° W 00:39:24 65° SSW
CZ-2D R/B 3.8 00:35:32 10° NE 00:39:34 22° E 00:40:53 20° ESE
USA 308 3.3 00:40:45 59° NE 00:40:45 59° NE 00:44:13 10° NE
Cosmos 1455 Rocket 4.4 00:37:38 10° NNE 00:41:38 31° ENE 00:42:28 29° E
Cosmos 1125 Rocket 3.4 00:43:32 68° WSW 00:44:00 74° WNW 00:49:13 10° NNE
Cosmos 1300 3.5 00:40:49 10° N 00:43:56 48° NE 00:43:56 48° NE
NOSS 0 Rocket 4.0 00:45:00 53° SW 00:46:30 75° WNW 00:52:46 10° NNE
SL-14 R/B 3.8 00:53:24 53° NNW 00:53:24 53° NNW 00:56:33 10° N
NOSS 3-1 (A) 4.1 00:45:33 10° NW 00:53:11 64° WSW 00:56:19 41° S
ERBS 4.3 00:55:13 24° NE 00:55:13 24° NE 00:56:39 10° NE
Cosmos 1975 Rocket 3.5 00:56:40 50° E 00:56:49 50° E 01:01:08 10° NNE
CZ-4C R/B 3.2 00:50:04 10° NW 00:57:21 52° WSW 00:59:24 44° SSW
Cosmos 2237 Rocket 2.2 00:56:44 60° SW 00:57:46 79° WNW 01:03:30 10° NNE
Cosmos 1025 Rocket 3.7 01:00:08 42° E 01:00:19 43° E 01:04:24 10° NNE
COSMOS 2428 4.1 00:59:51 22° W 01:02:11 30° NW 01:07:08 10° N
Cosmos 405 Rocket 4.3 01:03:21 27° NW 01:03:21 27° NW 01:06:03 10° NNW
USA 305 3.5 01:02:25 46° NW 01:02:52 49° NNW 01:06:56 10° NE
SME Rocket 3.7 01:03:28 43° ESE 01:04:20 51° ENE 01:09:10 10° N
Resurs 1-4 Rocket 3.0 01:00:47 10° NNE 01:05:40 37° E 01:07:01 32° SE
Meteor 2-12 Rocket 4.4 01:01:34 10° NNW 01:07:36 68° W 01:08:52 53° SSW
Cosmos 1745 Rocket 4.3 01:02:38 10° NNW 01:08:34 48° W 01:09:40 43° WSW
Cosmos 332 Rocket 3.6 01:08:19 77° SSW 01:08:39 87° WNW 01:13:29 10° NNE
Cosmos 1437 Rocket 4.2 01:06:39 10° NNW 01:08:52 27° NW 01:08:52 27° NW
NOSS 2-2 (D) 4.5 01:05:35 10° NW 01:10:57 63° WSW 01:12:49 46° S
Cosmos 1626 4.5 01:11:57 15° WNW 01:11:57 15° WNW 01:13:41 10° NNW
Lacrosse 5 rocket 2.5 01:14:37 31° E 01:14:37 31° E 01:17:21 10° ENE
Cosmos 1943 Rocket 3.1 01:09:15 10° NNW 01:14:44 46° ENE 01:19:23 14° SE
IDEFIX/ARIANE 42P 4.5 01:14:30 10° NE 01:18:30 21° E 01:21:05 15° SE
GP-B 3.0 01:14:53 10° N 01:19:20 73° W 01:19:29 72° WSW
ADEOS II 3.7 01:15:03 10° NE 01:19:26 26° E 01:21:40 20° SE
Cosmos 1953 3.8 01:17:44 10° NNW 01:20:22 27° WNW 01:20:22 27° WNW
Thor Agena Rocket 3.5 01:17:50 10° NNE 01:23:08 82° WNW 01:24:18 56° SSW
Cosmos 1544 Rocket 4.2 01:23:56 10° N 01:28:14 50° ENE 01:29:31 37° SE
Cosmos 2278 Rocket 2.8 01:25:18 10° NW 01:30:30 38° WSW 01:30:39 38° WSW
MOS 1 Rocket 4.4 01:33:16 20° SE 01:35:38 36° ENE 01:39:36 10° N
NPP 3.9 01:34:17 10° NNE 01:39:37 62° E 01:41:35 38° SSE
Cosmos 2369 Rocket 3.9 01:38:44 10° N 01:43:42 31° NE 01:48:38 10° ESE
USA 306 4.5 01:42:53 18° WNW 01:45:08 30° NNW 01:48:51 10° NE
SL-16 R/B 2.1 01:44:11 45° SSW 01:46:01 86° ESE 01:51:44 10° NNE
Lacrosse 5 1.9 01:46:10 45° WSW 01:47:44 77° NW 01:52:51 10° NE
USA 307 4.4 01:46:58 19° WNW 01:49:10 31° NNW 01:52:55 10° NE
SL-16 R/B 2.6 01:45:54 23° SSE 01:50:02 79° ENE 01:56:18 10° NNW
Cosmos 2074 Rocket 4.0 01:49:13 10° N 01:55:33 89° E 01:59:10 28° S
Cosmos 2084 Rocket 4.1 01:56:07 33° WNW 01:56:52 37° NW 02:00:26 10° NNE
Meteor 2-10 Rocket 4.3 01:51:52 10° NNW 01:56:57 36° W 01:57:59 33° WSW
Cosmos 1269 Rocket 4.0 01:53:45 10° NNW 01:58:57 60° WSW 02:00:37 40° SSW
AQUA 3.8 01:58:21 10° NNE 02:03:08 78° ESE 02:04:57 38° S
USA 267 4.3 02:04:19 25° WSW 02:04:19 25° WSW 02:08:48 10° WNW
Cosmos 1455 2.0 02:04:19 10° NNW 02:08:02 75° W 02:08:35 60° SSW
Meteor 1-24 Rocket 4.0 02:07:37 34° SW 02:09:41 51° WNW 02:15:00 10° N
COSMOS 2455 2.8 02:08:44 33° SSW 02:11:34 80° ESE 02:17:38 10° NNE
Cosmos 2184 Rocket 3.9 02:05:23 10° NNW 02:11:36 72° W 02:15:07 27° S
Cosmos 2228 3.8 02:11:09 10° N 02:15:24 49° ENE 02:18:53 14° SSE
Cosmos 1271 Rocket 2.9 02:12:17 10° N 02:16:06 70° E 02:18:01 28° SSE
Iridium 82 4.4 02:16:22 50° S 02:17:14 90° WSW 02:20:47 10° N
Cosmos 1455 Rocket 4.4 02:15:45 10° NW 02:19:16 23° W 02:19:33 23° W
CZ-2D R/B 2.5 02:14:43 10° N 02:19:54 50° WNW 02:22:12 30° SW
Cosmos 1536 Rocket 3.6 02:25:14 36° SW 02:26:52 61° W 02:31:13 10° N
MSX 4.0 02:21:18 10° NNE 02:27:04 68° ESE 02:31:11 20° S
Cosmos 292 Rocket 3.7 02:25:27 33° SSW 02:27:36 78° WNW 02:32:25 10° NNE
CRYOSAT 2 4.5 02:27:32 30° SSW 02:29:46 58° W 02:34:36 10° NNW
SAR-Lupe-2 4.0 02:28:09 10° N 02:31:36 46° WNW 02:32:32 36° WSW
NOSS 3-3 (A) 4.1 02:30:11 25° SSW 02:33:28 61° ESE 02:39:41 10° NE
NOSS 3-3 (C) 4.1 02:30:17 24° SSW 02:33:35 60° ESE 02:39:46 10° NE
Cosmos 1943 3.5 02:36:10 20° S 02:40:05 63° ESE 02:45:42 10° NNE
Cosmos 2237 Rocket 4.4 02:39:39 10° WNW 02:42:48 15° NW 02:45:58 10° N
Nadezhda 1 Rocket 4.2 02:39:52 23° SSW 02:43:50 57° W 02:50:03 10° N
Resurs 1-4 Rocket 3.3 02:40:50 10° N 02:45:20 29° WNW 02:48:05 19° WSW
Cosmos 1328 4.2 02:44:33 17° S 02:47:24 62° E 02:51:21 10° NNE
Helios 1B rocket 3.6 02:44:44 10° NNE 02:48:33 37° E 02:52:19 10° SSE
GPS 2-04 Rocket1 4.2 02:50:27 16° SSE 02:50:37 16° SSE 02:52:53 10° ESE
Cosmos 1606 Rocket 3.6 02:46:57 10° N 02:51:22 82° E 02:55:44 10° S
Lacrosse 5 rocket 2.6 02:50:08 15° W 02:52:45 32° NNW 02:56:28 10° NNE
ARIANE 5 R/B 4.5 02:49:34 10° NE 02:53:40 24° E 02:57:43 10° SSE
BREEZE-M DEB (TANK) 4.3 02:54:58 17° S 02:56:53 30° SE 03:02:59 10° ENE
CBERS-1 4.4 02:52:09 10° NNE 02:57:14 63° E 03:02:15 10° S
Cosmos 1943 Rocket 3.2 02:53:31 10° NW 02:58:11 27° WSW 03:00:49 19° SW
IDEFIX/ARIANE 42P 3.0 02:53:15 10° N 02:58:20 50° WNW 03:01:52 19° SW
ADEOS II 2.7 02:54:19 10° N 02:59:13 40° WNW 03:02:36 19° SW
Cosmos 1703 4.1 02:59:56 22° SW 03:01:48 36° WNW 03:05:28 10° N
Cosmos 2056 Rocket 4.2 02:58:07 10° S 03:03:05 50° ESE 03:08:11 10° NNE
Helios 1A 3.6 03:01:51 20° SSW 03:04:12 36° W 03:08:07 10° NNW
Cosmos 2263 4.2 02:59:32 10° NNW 03:05:15 85° WSW 03:10:59 10° SSE
COSMOS 2441 4.5 03:02:43 10° N 03:07:32 63° WNW 03:11:22 16° SSW
EO 1 Del DPAF 4.3 03:05:42 10° NNW 03:08:40 26° WNW 03:10:23 18° WSW
IRS-1D 3.7 03:05:11 10° N 03:10:28 65° WNW 03:14:56 14° SSW
Lacrosse 4 Rocket 3.4 03:07:48 10° SSE 03:11:18 24° ESE 03:14:44 10° NE
Cosmos 2366 rocket 4.1 03:06:22 10° N 03:12:33 80° E 03:18:45 10° S
Cosmos 2251 Rocket 3.7 03:08:07 10° NNW 03:13:12 49° WSW 03:18:16 10° S
ALOS 3.2 03:10:51 10° NNE 03:15:22 47° E 03:19:51 10° S
Cosmos 2341 Rocket 4.1 03:09:50 10° NNW 03:16:10 68° W 03:22:29 10° S
Cosmos 1190 Rocket 4.4 03:12:20 10° NNW 03:17:38 70° ENE 03:22:55 10° SSE
SL-8 Rocket 4.0 03:12:50 10° N 03:19:10 77° W 03:25:27 10° S
Cosmos 1892 3.1 03:19:14 10° S 03:22:57 61° E 03:26:41 10° NNE
Cosmos 1408 2.8 03:19:34 10° S 03:23:10 72° E 03:26:47 10° NNE
Cosmos 1892 Rocket 3.7 03:22:19 11° SSW 03:26:33 62° W 03:31:01 10° N
Cosmos 2369 Rocket 2.6 03:22:36 10° NW 03:27:47 40° WSW 03:32:57 10° S
Cosmos 1726 Rocket 3.8 03:26:13 10° NNW 03:30:29 48° W 03:34:40 10° SSW
PAYLOAD A 4.2 03:25:59 10° NNE 03:30:42 65° ESE 03:35:32 10° S
Cosmos 1656 Rocket 3.9 03:25:38 10° NW 03:30:48 47° WSW 03:35:58 10° S
CZ-2C R/B 2.8 03:25:45 10° NNE 03:30:51 67° ESE 03:35:47 10° S
SL-16 R/B 4.1 03:27:14 10° W 03:30:55 17° NW 03:34:36 10° N
Lacrosse 5 3.8 03:27:21 10° WNW 03:31:25 23° NNW 03:35:31 10° NNE
MOS 1-B Rocket 3.8 03:27:56 10° S 03:33:31 67° WSW 03:39:15 10° NNW
SL-16 R/B 4.0 03:30:59 11° SW 03:34:17 17° W 03:38:05 10° NW
In-Cosmos 22 Rocket 4.5 03:38:00 10° S 03:43:47 79° E 03:49:38 10° NNE
Cosmos 1420 Rocket 4.0 03:44:18 10° SSW 03:49:28 80° WNW 03:54:42 10° NNE
Cosmos 1603 4.4 03:48:37 10° SW 03:53:52 40° WNW 03:59:12 10° NNE
Cosmos 407 Rocket 4.1 03:51:58 10° NW 03:56:46 36° W 04:01:30 10° SSW
